Вернуться в каталог

STARLINK-31420

АктивенСвязьVLEO
NORAD 59223·PAYLOAD·🇺🇸 United States

Запущен Mar 11, 2024 с Vandenberg Space Force Base

Loading…

Ближайшие Пролёты (ближайшие 24 часа)

TLE

СвежийSource: CelesTrak SupGP

Эпоха: Sep 14, 2026, 14:07 UTC

1 59223C 24046Y   26257.58868056 -.00061536  00000+0 -18185-2 0  2579
2 59223  53.1603 357.4280 0001198  78.2579  70.7687 15.34414508    18

Отслеживайте STARLINK-31420 в реальном времени с AllMySat

Download on the App Store